SAUDISAT 1C (SO-50) (27607 NORAD) Tracking and Keplerian Element Data

This shows tracking and keplerian element data for the satellite.

Feedback or suggestion? Click here.




ElementValue
Catalog27607
NameSAUDISAT 1C (SO-50)
Epoch Orbit84211
Epoch Day230.22971195
Epoch Year2018
RAAN260.3852
Inclination64.5537
Eccentricity0.007145
Argument of Perigee315.1701
Mean Anonmoly44.3642
Mean Motion14.75471071
Decay Rate-4.1E-07
L11 27607U 02058C 18230.22971195 -.00000041 00000-0 15112-4 0 9997
L22 27607 64.5537 260.3852 0071450 315.1701 44.3642 14.75471071842111

Live tracking and technical data element details for SAUDISAT 1C (SO-50) (NORAD 27607). SAUDISAT 1C (SO-50) can be tracked NOW for your location showing map with azimuth and elevation plus other details from your city location.

Track the satellite on the map from your city or location and see movement details for azimuth, elevation, latitude, longitude, range, height, and movement on the map or in text.







IsCatalogInMostPopularTable: catalog: 27607, numindb: 89
Update: records affected: 1



GetName: 27607 SAUDISAT 1C (SO-50)

Hit Count: updated at: Mon, 20 Aug 2018 00:44:58 GMT